Content
SEND FEEDBACK

Daily
Averages
Monthly
Summary
Mexico

PLAYA DEL CARMEN, QUINTANA ROO


Home > North America > Mexico > Quintana Roo
Elevation: 30 feet     Latitude: 20 38N     Longitude: 087 04W

WEATHER
 
SELECT A DAY
Number of Records: 200,477;   Date Range: 2/21/06 - 9/30/14
 
SHARE

PRINT THIS DATA

[ ← Previous Day ]
WEATHER ALMANAC - MAY 9, 2013
[ Next Day → ]
[ °C ]   °F
Weather ElementAverageHighLow
Temperature75.9 °F86 °F (2:55 pm)59 °F (7:15 am)
Dewpoint43.8 °F64.4 °F (8:55 am) (7:00 pm)
Humidity47.5 %78 % (8:55 am)29 % (4:15 pm)
Barometer30.15 in30.19 in (9:15 am)30.10 in (6:35 pm)
Wind Speed2.1 mph8.1 mph (8:15 pm)
Weather ElementAverage
Visibility9.7 mi
Wind DirectionE (90.6 °)

Weather ElementTotal
Precipitation---
Cooling Degree Days7.5 (Base 65)
Growing Degree Days22.5 (Base 50)
Averaged from 49 records on May 9, 2013
WEATHER CONDITIONS BREAKOUT
WIND DIRECTION BREAKOUT
WEATHER BY HOUR - MAY 9, 2013
[ °C ]   °F
Local TimeTemperatureDewpointHumidityBarometerVisibilityWind DirectionWind SpeedGust SpeedPrecipitationEventsConditions
1:55 AM60.8 °F0.0 °F30.15 in10.0 miCalmClear
2:15 AM60.8 °F0.0 °F30.14 in7.0 miCalmClear
2:35 AM62.6 °F0.0 °F30.14 in10.0 miCalmClear
2:55 AM62.6 °F0.0 °F30.13 in10.0 miCalmClear
3:15 AM62.6 °F0.0 °F30.12 in10.0 miCalmClear
3:35 AM60.8 °F0.0 °F30.12 in10.0 miCalmClear
4:55 AM62.6 °F0.0 °F30.12 in10.0 miCalmClear
5:35 AM60.8 °F0.0 °F30.12 in10.0 miCalmClear
7:15 AM59.0 °F0.0 °F30.15 in3.0 miCalmClear
7:55 AM64.4 °F0.0 °F30.16 in7.0 miCalmClear
8:15 AM66.2 °F0.0 °F30.17 in10.0 miCalmClear
8:55 AM71.6 °F64.4 °F78 %30.18 in10.0 miNorth (10°)5.8 mphClear
9:15 AM73.4 °F64.4 °F73 %30.19 in10.0 miNorth (360°)5.8 mphClear
9:35 AM73.4 °F64.4 °F73 %30.19 in10.0 miNNW (340°)6.9 mphClear
10:15 AM75.2 °F62.6 °F65 %30.19 in10.0 miNorth (10°)5.8 mphScattered Clouds
10:55 AM75.2 °F60.8 °F61 %30.19 in10.0 miCalmScattered Clouds
11:35 AM78.8 °F60.8 °F54 %30.19 in10.0 miENE (70°)4.6 mphClear
11:55 AM80.6 °F57.2 °F45 %30.19 in10.0 miCalmScattered Clouds
12:15 PM82.4 °F59.0 °F45 %30.19 in10.0 miNNE (20°)4.6 mphScattered Clouds
12:35 PM80.6 °F55.4 °F42 %30.19 in10.0 miCalmScattered Clouds
1:15 PM82.4 °F55.4 °F39 %30.18 in7.0 miSouth (190°)4.6 mphScattered Clouds
1:35 PM82.4 °F55.4 °F39 %30.17 in10.0 miNorth (10°)4.6 mphScattered Clouds
1:55 PM84.2 °F53.6 °F35 %30.16 in10.0 miCalmClear
2:15 PM84.2 °F53.6 °F35 %30.16 in10.0 miCalmClear
2:35 PM84.2 °F53.6 °F35 %30.16 in10.0 miCalmClear
2:55 PM86.0 °F53.6 °F33 %30.15 in10.0 miNNW (340°)5.8 mphClear
3:35 PM86.0 °F51.8 °F31 %30.14 in10.0 miCalmClear
4:15 PM86.0 °F50.0 °F29 %30.12 in10.0 miNNW (340°)3.5 mphScattered Clouds
4:35 PM86.0 °F51.8 °F31 %30.12 in10.0 miSW (220°)3.5 mphScattered Clouds
4:55 PM86.0 °F51.8 °F31 %30.12 in10.0 miWSW (250°)4.6 mphClear
5:15 PM86.0 °F51.8 °F31 %30.12 in10.0 miSW (230°)3.5 mphClear
5:35 PM86.0 °F51.8 °F31 %30.11 in10.0 miCalmClear
5:55 PM86.0 °F50.0 °F29 %30.11 in10.0 miCalmClear
6:15 PM86.0 °F50.0 °F29 %30.11 in10.0 miSW (230°)3.5 mphScattered Clouds
6:35 PM86.0 °F51.8 °F31 %30.10 in10.0 miSouth (190°)3.5 mphScattered Clouds
6:55 PM86.0 °F51.8 °F31 %30.10 in10.0 miCalmClear
7:15 PM84.2 °F50.0 °F30 %30.11 in10.0 miCalmClear
7:35 PM84.2 °F51.8 °F33 %30.11 in10.0 miCalmClear
7:55 PM82.4 °F53.6 °F37 %30.11 in10.0 miNNW (340°)3.5 mphClear
8:15 PM80.6 °F59.0 °F48 %30.12 in10.0 miWNW (290°)8.1 mphClear
8:55 PM77.0 °F60.8 °F57 %30.14 in10.0 miNW (310°)6.9 mphClear
9:15 PM75.2 °F60.8 °F61 %30.14 in10.0 miNNW (340°)4.6 mphClear
9:35 PM75.2 °F60.8 °F61 %30.14 in10.0 miNW (320°)3.5 mphClear
9:55 PM73.4 °F60.8 °F65 %30.14 in10.0 miCalmClear
10:15 PM71.6 °F60.8 °F69 %30.14 in10.0 miCalmClear
10:35 PM69.8 °F60.8 °F73 %30.15 in10.0 miCalmClear
10:55 PM71.6 °F60.8 °F69 %30.15 in10.0 miNNE (30°)3.5 mphClear
11:15 PM68.0 °F60.8 °F78 %30.16 in10.0 miCalmClear
11:55 PM69.8 °F59.0 °F68 %30.18 in10.0 miCalmClear
Hourly data recorded from KPCM, located miles away from Playa del Carmen, Quintana Roo







STORIES FROM OUR PARTNERS